Time,TemperatureF,DewpointF,PressureIn,WindDirection,WindDirectionDegrees,WindSpeedMPH,WindSpeedGustMPH,Humidity,HourlyPrecipIn,Conditions,Clouds,dailyrainin,SoftwareType,DateUTC
2013-02-04 00:11:00,31.0,28.0,29.68,NW,320,22.0,27.0,89,-99.99,,,-99.99,,2013-02-04 00:11:00,
2013-02-04 00:21:00,31.0,28.0,29.68,NW,320,22.0,27.0,89,-99.99,,,-99.99,,2013-02-04 00:21:00,
2013-02-04 00:31:00,31.0,28.0,29.68,NW,320,22.0,27.0,89,-99.99,,,-99.99,,2013-02-04 00:31:00,
2013-02-04 00:41:00,31.0,28.0,29.68,NW,320,22.0,27.0,89,-99.99,,,-99.99,,2013-02-04 00:41:00,
2013-02-04 00:50:00,30.0,28.0,29.67,NW,320,22.0,25.0,91,-99.99,,,-99.99,,2013-02-04 00:50:00,
2013-02-04 01:21:00,30.0,28.0,29.67,NW,320,22.0,25.0,91,-99.99,,,-99.99,,2013-02-04 01:21:00,
2013-02-04 01:31:00,30.0,28.0,29.67,NW,320,22.0,25.0,91,-99.99,,,-99.99,,2013-02-04 01:31:00,
2013-02-04 01:41:00,30.0,28.0,29.67,NW,320,22.0,25.0,91,-99.99,,,-99.99,,2013-02-04 01:41:00,
2013-02-04 01:50:00,29.0,27.0,29.65,NW,320,25.0,31.0,90,-99.99,,,-99.99,,2013-02-04 01:50:00,
2013-02-04 02:21:00,29.0,27.0,29.65,NW,320,25.0,31.0,90,-99.99,,,-99.99,,2013-02-04 02:21:00,
2013-02-04 02:31:00,29.0,27.0,29.65,NW,320,25.0,31.0,90,-99.99,,,-99.99,,2013-02-04 02:31:00,
2013-02-04 02:41:00,29.0,27.0,29.65,NW,320,25.0,31.0,90,-99.99,,,-99.99,,2013-02-04 02:41:00,
2013-02-04 02:50:00,29.0,27.0,29.63,NW,320,27.0,31.0,90,-99.99,,,-99.99,,2013-02-04 02:50:00,
2013-02-04 03:21:00,29.0,27.0,29.63,NW,320,27.0,31.0,90,-99.99,,,-99.99,,2013-02-04 03:21:00,
2013-02-04 03:31:00,29.0,27.0,29.63,NW,320,27.0,31.0,90,-99.99,,,-99.99,,2013-02-04 03:31:00,
2013-02-04 03:41:00,29.0,27.0,29.63,NW,320,27.0,31.0,90,-99.99,,,-99.99,,2013-02-04 03:41:00,
2013-02-04 03:50:00,28.0,25.0,29.65,NW,310,25.0,29.0,86,-99.99,,,-99.99,,2013-02-04 03:50:00,
2013-02-04 04:11:00,28.0,25.0,29.65,NW,310,25.0,29.0,86,-99.99,,,-99.99,,2013-02-04 04:11:00,
2013-02-04 04:21:00,28.0,25.0,29.65,NW,310,25.0,29.0,86,-99.99,,,-99.99,,2013-02-04 04:21:00,
2013-02-04 04:31:00,28.0,25.0,29.65,NW,310,25.0,29.0,86,-99.99,,,-99.99,,2013-02-04 04:31:00,
2013-02-04 04:41:00,28.0,25.0,29.65,NW,310,25.0,29.0,86,-99.99,,,-99.99,,2013-02-04 04:41:00,
2013-02-04 04:50:00,28.0,23.0,29.66,NW,310,27.0,31.0,82,-99.99,,,-99.99,,2013-02-04 04:50:00,
2013-02-04 05:11:00,28.0,23.0,29.66,NW,310,27.0,31.0,82,-99.99,,,-99.99,,2013-02-04 05:11:00,
2013-02-04 05:21:00,28.0,23.0,29.66,NW,310,27.0,31.0,82,-99.99,,,-99.99,,2013-02-04 05:21:00,
2013-02-04 05:33:00,28.0,23.0,29.66,NW,310,27.0,31.0,82,-99.99,,,-99.99,,2013-02-04 05:33:00,
2013-02-04 05:41:00,28.0,23.0,29.66,NW,310,27.0,31.0,82,-99.99,,,-99.99,,2013-02-04 05:41:00,
2013-02-04 05:50:00,27.0,22.0,29.67,NW,310,25.0,29.0,81,-99.99,,,-99.99,,2013-02-04 05:50:00,
2013-02-04 06:11:00,27.0,22.0,29.67,NW,310,25.0,29.0,81,-99.99,,,-99.99,,2013-02-04 06:11:00,
2013-02-04 06:21:00,27.0,22.0,29.67,NW,310,25.0,29.0,81,-99.99,,,-99.99,,2013-02-04 06:21:00,
2013-02-04 06:31:00,27.0,22.0,29.67,NW,310,25.0,29.0,81,-99.99,,,-99.99,,2013-02-04 06:31:00,
2013-02-04 06:41:00,27.0,22.0,29.67,NW,310,25.0,29.0,81,-99.99,,,-99.99,,2013-02-04 06:41:00,
2013-02-04 06:50:00,27.0,22.0,29.69,NW,310,22.0,27.0,82,-99.99,,,-99.99,,2013-02-04 06:50:00,
2013-02-04 07:21:00,27.0,22.0,29.69,NW,310,22.0,27.0,82,-99.99,,,-99.99,,2013-02-04 07:21:00,
2013-02-04 07:31:00,27.0,22.0,29.69,NW,310,22.0,27.0,82,-99.99,,,-99.99,,2013-02-04 07:31:00,
2013-02-04 07:41:00,27.0,22.0,29.69,NW,310,22.0,27.0,82,-99.99,,,-99.99,,2013-02-04 07:41:00,
2013-02-04 07:50:00,27.0,21.0,29.69,NW,310,22.0,25.0,77,-99.99,,,-99.99,,2013-02-04 07:50:00,
2013-02-04 08:11:00,27.0,21.0,29.69,NW,310,22.0,25.0,77,-99.99,,,-99.99,,2013-02-04 08:11:00,
2013-02-04 08:21:00,27.0,21.0,29.69,NW,310,22.0,25.0,77,-99.99,,,-99.99,,2013-02-04 08:21:00,
2013-02-04 08:31:00,27.0,21.0,29.69,NW,310,22.0,25.0,77,-99.99,,,-99.99,,2013-02-04 08:31:00,
2013-02-04 08:41:00,27.0,21.0,29.69,NW,310,22.0,25.0,77,-99.99,,,-99.99,,2013-02-04 08:41:00,
2013-02-04 08:50:00,28.0,20.0,29.69,WNW,300,25.0,29.0,71,-99.99,,,-99.99,,2013-02-04 08:50:00,
2013-02-04 09:21:00,28.0,20.0,29.69,WNW,300,25.0,29.0,71,-99.99,,,-99.99,,2013-02-04 09:21:00,
2013-02-04 09:31:00,28.0,20.0,29.69,WNW,300,25.0,29.0,71,-99.99,,,-99.99,,2013-02-04 09:31:00,
2013-02-04 09:41:00,28.0,20.0,29.69,WNW,300,25.0,29.0,71,-99.99,,,-99.99,,2013-02-04 09:41:00,
2013-02-04 09:50:00,27.0,18.0,29.70,WNW,300,22.0,27.0,69,-99.99,,,-99.99,,2013-02-04 09:50:00,
2013-02-04 10:11:00,27.0,18.0,29.70,WNW,300,22.0,27.0,69,-99.99,,,-99.99,,2013-02-04 10:11:00,
2013-02-04 10:21:00,27.0,18.0,29.70,WNW,300,22.0,27.0,69,-99.99,,,-99.99,,2013-02-04 10:21:00,
2013-02-04 10:32:00,27.0,18.0,29.70,WNW,300,22.0,27.0,69,-99.99,,,-99.99,,2013-02-04 10:32:00,
2013-02-04 10:41:00,27.0,18.0,29.70,WNW,300,22.0,27.0,69,-99.99,,,-99.99,,2013-02-04 10:41:00,
2013-02-04 10:50:00,27.0,17.0,29.72,NW,310,22.0,27.0,63,-99.99,,,-99.99,,2013-02-04 10:50:00,
2013-02-04 11:22:00,27.0,17.0,29.72,NW,310,22.0,27.0,63,-99.99,,,-99.99,,2013-02-04 11:22:00,
2013-02-04 11:32:00,27.0,17.0,29.72,NW,310,22.0,27.0,63,-99.99,,,-99.99,,2013-02-04 11:32:00,
2013-02-04 11:41:00,27.0,17.0,29.72,NW,310,22.0,27.0,63,-99.99,,,-99.99,,2013-02-04 11:41:00,
2013-02-04 11:50:00,28.0,17.0,29.74,WNW,300,22.0,27.0,62,-99.99,,,-99.99,,2013-02-04 11:50:00,
2013-02-04 12:21:00,28.0,17.0,29.74,WNW,300,22.0,27.0,62,-99.99,,,-99.99,,2013-02-04 12:21:00,
2013-02-04 12:32:00,28.0,17.0,29.74,WNW,300,22.0,27.0,62,-99.99,,,-99.99,,2013-02-04 12:32:00,
2013-02-04 12:41:00,28.0,17.0,29.74,WNW,300,22.0,27.0,62,-99.99,,,-99.99,,2013-02-04 12:41:00,
2013-02-04 12:50:00,27.0,16.0,29.75,WNW,300,25.0,27.0,62,-99.99,,,-99.99,,2013-02-04 12:50:00,
2013-02-04 13:11:00,27.0,16.0,29.75,WNW,300,25.0,27.0,62,-99.99,,,-99.99,,2013-02-04 13:11:00,
2013-02-04 13:21:00,27.0,16.0,29.75,WNW,300,25.0,27.0,62,-99.99,,,-99.99,,2013-02-04 13:21:00,
2013-02-04 13:32:00,27.0,16.0,29.75,WNW,300,25.0,27.0,62,-99.99,,,-99.99,,2013-02-04 13:32:00,
2013-02-04 13:41:00,27.0,16.0,29.75,WNW,300,25.0,27.0,62,-99.99,,,-99.99,,2013-02-04 13:41:00,
2013-02-04 13:50:00,27.0,17.0,29.77,NW,310,22.0,29.0,63,-99.99,,,-99.99,,2013-02-04 13:50:00,
2013-02-04 14:11:00,27.0,17.0,29.77,NW,310,22.0,29.0,63,-99.99,,,-99.99,,2013-02-04 14:11:00,
2013-02-04 14:21:00,27.0,17.0,29.77,NW,310,22.0,29.0,63,-99.99,,,-99.99,,2013-02-04 14:21:00,
2013-02-04 14:32:00,27.0,17.0,29.77,NW,310,22.0,29.0,63,-99.99,,,-99.99,,2013-02-04 14:32:00,
2013-02-04 14:41:00,27.0,17.0,29.77,NW,310,22.0,29.0,63,-99.99,,,-99.99,,2013-02-04 14:41:00,
2013-02-04 14:50:00,28.0,15.0,29.78,WNW,300,22.0,27.0,57,-99.99,,,-99.99,,2013-02-04 14:50:00,
2013-02-04 15:11:00,28.0,15.0,29.78,WNW,300,22.0,27.0,57,-99.99,,,-99.99,,2013-02-04 15:11:00,
2013-02-04 15:22:00,28.0,15.0,29.78,WNW,300,22.0,27.0,57,-99.99,,,-99.99,,2013-02-04 15:22:00,
2013-02-04 15:33:00,28.0,15.0,29.78,WNW,300,22.0,27.0,57,-99.99,,,-99.99,,2013-02-04 15:33:00,
2013-02-04 15:42:00,28.0,15.0,29.78,WNW,300,22.0,27.0,57,-99.99,,,-99.99,,2013-02-04 15:42:00,
2013-02-04 15:50:00,28.0,15.0,29.79,WNW,290,25.0,29.0,56,-99.99,,,-99.99,,2013-02-04 15:50:00,
2013-02-04 16:21:00,28.0,15.0,29.79,WNW,290,25.0,29.0,56,-99.99,,,-99.99,,2013-02-04 16:21:00,
2013-02-04 16:32:00,28.0,15.0,29.79,WNW,290,25.0,29.0,56,-99.99,,,-99.99,,2013-02-04 16:32:00,
2013-02-04 16:42:00,28.0,15.0,29.79,WNW,290,25.0,29.0,56,-99.99,,,-99.99,,2013-02-04 16:42:00,
2013-02-04 16:50:00,28.0,16.0,29.78,West,280,22.0,29.0,58,-99.99,,,-99.99,,2013-02-04 16:50:00,
2013-02-04 17:21:00,28.0,16.0,29.78,West,280,22.0,29.0,58,-99.99,,,-99.99,,2013-02-04 17:21:00,
2013-02-04 17:31:00,28.0,16.0,29.78,West,280,22.0,29.0,58,-99.99,,,-99.99,,2013-02-04 17:31:00,
2013-02-04 17:41:00,28.0,16.0,29.78,West,280,22.0,29.0,58,-99.99,,,-99.99,,2013-02-04 17:41:00,
2013-02-04 17:50:00,29.0,13.0,29.78,West,280,25.0,29.0,51,-99.99,,,-99.99,,2013-02-04 17:50:00,
2013-02-04 18:11:00,29.0,13.0,29.78,West,280,25.0,29.0,51,-99.99,,,-99.99,,2013-02-04 18:11:00,
2013-02-04 18:21:00,29.0,13.0,29.78,West,280,25.0,29.0,51,-99.99,,,-99.99,,2013-02-04 18:21:00,
2013-02-04 18:31:00,29.0,13.0,29.78,West,280,25.0,29.0,51,-99.99,,,-99.99,,2013-02-04 18:31:00,
2013-02-04 18:41:00,29.0,13.0,29.78,West,280,25.0,29.0,51,-99.99,,,-99.99,,2013-02-04 18:41:00,
2013-02-04 18:50:00,29.0,13.0,29.78,West,280,25.0,29.0,50,-99.99,,,-99.99,,2013-02-04 18:50:00,
2013-02-04 19:21:00,29.0,13.0,29.78,West,280,25.0,29.0,50,-99.99,,,-99.99,,2013-02-04 19:21:00,
2013-02-04 19:31:00,29.0,13.0,29.78,West,280,25.0,29.0,50,-99.99,,,-99.99,,2013-02-04 19:31:00,
2013-02-04 19:41:00,29.0,13.0,29.78,West,280,25.0,29.0,50,-99.99,,,-99.99,,2013-02-04 19:41:00,
2013-02-04 19:50:00,29.0,13.0,29.79,West,270,27.0,34.0,50,-99.99,,,-99.99,,2013-02-04 19:50:00,
2013-02-04 20:11:00,29.0,13.0,29.79,West,270,27.0,34.0,50,-99.99,,,-99.99,,2013-02-04 20:11:00,
2013-02-04 20:21:00,29.0,13.0,29.79,West,270,27.0,34.0,50,-99.99,,,-99.99,,2013-02-04 20:21:00,
2013-02-04 20:31:00,29.0,13.0,29.79,West,270,27.0,34.0,50,-99.99,,,-99.99,,2013-02-04 20:31:00,
2013-02-04 20:42:00,29.0,13.0,29.79,West,270,27.0,34.0,50,-99.99,,,-99.99,,2013-02-04 20:42:00,
2013-02-04 20:50:00,30.0,14.0,29.80,West,270,25.0,29.0,51,-99.99,,,-99.99,,2013-02-04 20:50:00,
2013-02-04 21:21:00,30.0,14.0,29.80,West,270,25.0,29.0,51,-99.99,,,-99.99,,2013-02-04 21:21:00,
2013-02-04 21:31:00,30.0,14.0,29.80,West,270,25.0,29.0,51,-99.99,,,-99.99,,2013-02-04 21:31:00,
2013-02-04 21:42:00,30.0,14.0,29.80,West,270,25.0,29.0,51,-99.99,,,-99.99,,2013-02-04 21:42:00,
2013-02-04 21:50:00,30.0,14.0,29.81,West,280,25.0,29.0,51,-99.99,,,-99.99,,2013-02-04 21:50:00,
2013-02-04 22:11:00,30.0,14.0,29.81,West,280,25.0,29.0,51,-99.99,,,-99.99,,2013-02-04 22:11:00,
2013-02-04 22:21:00,30.0,14.0,29.81,West,280,25.0,29.0,51,-99.99,,,-99.99,,2013-02-04 22:21:00,
2013-02-04 22:32:00,30.0,14.0,29.81,West,280,25.0,29.0,51,-99.99,,,-99.99,,2013-02-04 22:32:00,
2013-02-04 22:41:00,30.0,14.0,29.81,West,280,25.0,29.0,51,-99.99,,,-99.99,,2013-02-04 22:41:00,
2013-02-04 22:50:00,30.0,13.0,29.83,West,280,25.0,29.0,48,-99.99,,,-99.99,,2013-02-04 22:50:00,
2013-02-04 23:21:00,30.0,13.0,29.83,West,280,25.0,29.0,48,-99.99,,,-99.99,,2013-02-04 23:21:00,
2013-02-04 23:31:00,30.0,13.0,29.83,West,280,25.0,29.0,48,-99.99,,,-99.99,,2013-02-04 23:31:00,
2013-02-04 23:41:00,30.0,13.0,29.83,West,280,25.0,29.0,48,-99.99,,,-99.99,,2013-02-04 23:41:00,
2013-02-04 23:50:00,30.0,13.0,29.86,West,280,22.0,27.0,49,-99.99,,,-99.99,,2013-02-04 23:50:00,